Date String (YYYY-MM-DD hh:mm:ss) UTC,Instrument flags,Ambient pressure (hPa),Sample flow (lpm),Bypass flow (lpm),Sample temperature (°C),Ambient temperature (°C),ASC tube jacket temperature (°C),LED temperature (°C),Box temperature (°C),Sample RH (%),Span deviation,Mass concentration (μg/m³),Mass concentration (μg/m³),Mass concentration (μg/m³)
DateTimeUTC,F1_M11,P_M11,Q1_M11,Q2_M11,T1_M11,T2_M11,T3_M11,T4_M11,T5_M11,U1_M11,ZSPAN_M11,X0_M11,X2_M11,X1_M11
2022-11-18 07:00:00,,0833.0,4.99,0.00,22.0,20.6,00.0,31.0,23.7,09.2,0000.0,0007.72,0003.88,0003.64
2022-11-18 07:01:00,,0833.0,5.00,0.00,22.0,20.5,00.0,31.0,23.7,09.2,0000.0,0007.73,0003.89,0003.64
2022-11-18 07:02:00,,0833.0,5.01,0.00,22.0,20.4,00.0,31.0,23.6,09.3,0000.0,0007.05,0003.89,0003.62
2022-11-18 07:03:00,,0833.1,4.99,0.00,22.0,20.7,00.0,31.0,23.7,09.3,0000.0,0006.34,0003.88,0003.62
2022-11-18 07:04:00,,0833.0,4.99,0.00,22.0,21.7,00.0,30.9,23.9,09.2,0000.0,0006.38,0003.89,0003.61
2022-11-18 07:05:00,,0833.1,5.01,0.00,22.2,22.3,00.0,30.9,24.1,09.2,0000.0,0006.36,0003.88,0003.60
2022-11-18 07:06:00,,0833.0,5.00,0.00,22.2,21.9,00.0,31.0,24.1,09.2,0000.0,0006.22,0003.85,0003.59
2022-11-18 07:07:00,,0833.0,5.00,0.00,22.2,21.5,00.0,31.0,24.0,09.2,0000.0,0006.05,0003.83,0003.57
2022-11-18 07:08:00,,0833.1,5.00,0.00,22.1,21.2,00.0,31.0,23.9,09.2,0000.0,0005.83,0003.81,0003.56
2022-11-18 07:09:00,,0833.0,5.00,0.00,22.1,21.0,00.0,31.1,23.9,09.2,0000.0,0005.97,0003.82,0003.54
2022-11-18 07:10:00,,0832.9,4.99,0.00,22.1,20.8,00.0,31.1,23.8,09.2,0000.0,0005.82,0003.81,0003.54
2022-11-18 07:11:00,,0832.9,5.00,0.00,22.0,20.6,00.0,31.0,23.8,09.2,0000.0,0005.87,0003.82,0003.54
2022-11-18 07:12:00,,0832.9,5.00,0.00,22.0,20.5,00.0,31.0,23.7,09.1,0000.0,0005.79,0003.80,0003.54
2022-11-18 07:13:00,,0832.9,5.00,0.00,22.0,20.4,00.0,31.0,23.6,09.2,0000.0,0005.71,0003.80,0003.56
2022-11-18 07:14:00,,0833.0,5.02,0.00,22.0,20.9,00.0,31.0,23.7,09.1,0000.0,0005.67,0003.83,0003.57
2022-11-18 07:15:00,,0833.0,5.00,0.00,22.1,21.9,00.0,30.9,24.0,09.1,0000.0,0005.65,0003.83,0003.58
2022-11-18 07:16:00,,0833.1,5.00,0.00,22.2,22.1,00.0,31.0,24.1,09.1,0000.0,0005.85,0003.84,0003.58
2022-11-18 07:17:00,,0833.0,4.99,0.00,22.2,21.5,00.0,31.0,24.0,09.0,0000.0,0005.81,0003.85,0003.59
2022-11-18 07:18:00,,0832.9,5.01,0.00,22.1,21.2,00.0,31.0,23.9,09.1,0000.0,0005.76,0003.85,0003.60
2022-11-18 07:19:00,,0832.9,5.00,0.00,22.1,21.0,00.0,31.0,23.8,09.1,0000.0,0005.87,0003.89,0003.62
2022-11-18 07:20:00,,0832.8,5.00,0.00,22.1,20.8,00.0,31.0,23.8,09.1,0000.0,0005.82,0003.90,0003.64
2022-11-18 07:21:00,,0832.8,5.00,0.00,22.0,20.7,00.0,31.0,23.7,09.1,0000.0,0005.90,0003.90,0003.66
2022-11-18 07:22:00,,0832.9,5.00,0.00,22.0,20.5,00.0,31.0,23.7,09.1,0000.0,0006.03,0003.89,0003.67
2022-11-18 07:23:00,,0832.9,5.00,0.00,22.0,20.5,00.0,31.0,23.6,09.1,0000.0,0006.05,0003.90,0003.68
2022-11-18 07:24:00,,0832.9,5.00,0.00,22.0,20.5,00.0,31.0,23.7,09.1,0000.0,0005.92,0003.88,0003.68
2022-11-18 07:25:00,,0833.0,5.01,0.00,22.0,21.4,00.0,30.9,23.9,09.1,0000.0,0005.83,0003.85,0003.67
2022-11-18 07:26:00,,0833.0,5.00,0.00,22.1,22.2,00.0,30.9,24.1,09.1,0000.0,0005.88,0003.86,0003.68
2022-11-18 07:27:00,,0833.0,4.99,0.00,22.2,22.0,00.0,31.0,24.1,09.0,0000.0,0005.73,0003.86,0003.68
2022-11-18 07:28:00,,0833.0,4.99,0.00,22.2,21.7,00.0,31.0,24.1,09.0,0000.0,0005.73,0003.87,0003.68
2022-11-18 07:29:00,,0833.0,5.00,0.00,22.2,21.3,00.0,31.0,24.0,09.0,0000.0,0005.88,0003.89,0003.68
2022-11-18 07:30:00,,0833.0,5.00,0.00,22.1,21.1,00.0,31.1,23.9,09.1,0000.0,0005.77,0003.87,0003.68
2022-11-18 07:31:00,,0833.0,5.00,0.00,22.1,20.9,00.0,31.1,23.8,09.1,0000.0,0005.69,0003.85,0003.67
2022-11-18 07:32:00,,0833.0,5.00,0.00,22.1,20.7,00.0,31.1,23.8,09.1,0000.0,0005.65,0003.87,0003.68
2022-11-18 07:33:00,,0833.0,5.00,0.00,22.0,20.6,00.0,31.0,23.8,09.1,0000.0,0005.49,0003.88,0003.67
2022-11-18 07:34:00,,0833.0,5.00,0.00,22.0,20.5,00.0,31.0,23.7,09.1,0000.0,0005.47,0003.87,0003.67
2022-11-18 07:35:00,,0833.0,5.01,0.00,22.0,20.8,00.0,31.0,23.7,09.1,0000.0,0005.58,0003.90,0003.67
2022-11-18 07:36:00,,0833.1,5.01,0.00,22.1,21.8,00.0,30.9,24.0,09.1,0000.0,0005.75,0003.92,0003.66
2022-11-18 07:37:00,,0833.1,4.98,0.00,22.2,22.4,00.0,31.0,24.2,09.0,0000.0,0005.82,0003.92,0003.66
2022-11-18 07:38:00,,0833.0,5.00,0.00,22.2,22.0,00.0,31.0,24.2,09.0,0000.0,0005.72,0003.91,0003.66
2022-11-18 07:39:00,,0832.9,5.01,0.00,22.2,21.6,00.0,31.1,24.1,09.0,0000.0,0005.67,0003.92,0003.68
2022-11-18 07:40:00,,0832.9,5.00,0.00,22.2,21.3,00.0,31.1,24.0,09.0,0000.0,0005.51,0003.91,0003.69
2022-11-18 07:41:00,,0833.0,5.00,0.00,22.2,21.0,00.0,31.1,23.9,09.0,0000.0,0005.54,0003.93,0003.69
2022-11-18 07:42:00,,0833.0,5.00,0.00,22.1,20.8,00.0,31.1,23.8,09.0,0000.0,0005.54,0003.93,0003.69
2022-11-18 07:43:00,,0833.1,5.00,0.00,22.1,20.6,00.0,31.1,23.8,09.0,0000.0,0005.43,0003.90,0003.68
2022-11-18 07:44:00,,0833.0,4.99,0.00,22.0,20.4,00.0,31.1,23.7,09.0,0000.0,0005.46,0003.90,0003.67
2022-11-18 07:45:00,,0833.1,5.01,0.00,22.0,20.6,00.0,31.0,23.7,09.0,0000.0,0005.46,0003.89,0003.65
2022-11-18 07:46:00,,0833.0,5.00,0.00,22.1,21.5,00.0,31.0,23.9,09.0,0000.0,0005.44,0003.88,0003.63
2022-11-18 07:47:00,,0833.0,5.00,0.00,22.2,22.2,00.0,31.0,24.1,08.9,0000.0,0005.44,0003.85,0003.62
2022-11-18 07:48:00,,0833.0,4.98,0.00,22.2,21.8,00.0,31.0,24.1,08.9,0000.0,0005.32,0003.84,0003.61
2022-11-18 07:49:00,,0832.9,5.01,0.00,22.2,21.4,00.0,31.1,24.0,08.9,0000.0,0005.46,0003.85,0003.59
2022-11-18 07:50:00,,0832.8,4.99,0.00,22.1,21.1,00.0,31.1,23.9,08.9,0000.0,0005.51,0003.84,0003.57
2022-11-18 07:51:00,,0832.8,4.99,0.00,22.1,20.8,00.0,31.1,23.8,08.9,0000.0,0005.50,0003.83,0003.55
2022-11-18 07:52:00,,0832.8,5.01,0.00,22.1,20.7,00.0,31.1,23.7,08.9,0000.0,0005.45,0003.81,0003.53
2022-11-18 07:53:00,,0832.9,5.00,0.00,22.0,20.5,00.0,31.1,23.7,08.9,0000.0,0005.56,0003.81,0003.51
2022-11-18 07:54:00,,0832.9,5.00,0.00,22.0,20.4,00.0,31.0,23.6,09.0,0000.0,0005.59,0003.80,0003.50
2022-11-18 07:55:00,,0832.9,5.01,0.00,22.0,20.9,00.0,31.0,23.7,08.9,0000.0,0005.69,0003.80,0003.49
2022-11-18 07:56:00,,0832.8,5.00,0.00,22.1,22.0,00.0,30.9,24.0,08.9,0000.0,0005.68,0003.79,0003.49
2022-11-18 07:57:00,,0832.8,5.00,0.00,22.2,22.2,00.0,31.0,24.1,08.8,0000.0,0005.64,0003.77,0003.48
2022-11-18 07:58:00,,0832.8,5.00,0.00,22.2,21.7,00.0,31.0,24.1,08.8,0000.0,0005.59,0003.77,0003.47
2022-11-18 07:59:00,,0832.9,4.99,0.00,22.2,21.3,00.0,31.1,24.0,08.9,0000.0,0005.67,0003.78,0003.47
